Terminal Aerodrome Forecast
Issued by NWS Duluth, MN

Home | Current Version | Previous Version | Text Only | Print | Product List | Glossary On
Versions: 1 2 3 4 5 6 7 8 9 10 11 12 13 14 15 16 17 18 19 20 21 22 23 24 25 26 27 28 29
000
FTUS43 KDLH 202300
TAFINL
TAF
KINL 202335Z 2100/2124 21008KT P6SM SCT050
      TEMPO 2100/2103 3SM TSRA BKN015CB
     FM210400 24004KT 5SM BR SCT010 BKN150
      TEMPO 2108/2112 1SM BR BKN008
     FM211500 VRB04KT P6SM SCT035
     FM212000 VRB04KT P6SM VCTS BKN040CB=

USA.gov is the U.S. government's official web portal to all federal, state and local government web resources and services.